User: anonymous
Location: Unspecified
(0.0000°N, 0.0000°E)
Time: 13:59:26
(UTC+02:00)
Language:

Resurs 1-3 - Orbit

View from above orbital plane
View from above orbital plane
View from above satellite
View from above satellite

Ground track
Ground track

The orbit data is extracted from the following two-line orbital elements,

1 23342U 94074A   14109.12635273  .00001130  00000-0  16282-3 0  1654
2 23342 098.1672 118.4534 0001340 133.7473 268.0371 14.78323709 47069
Epoch (UTC): 19 April 2014 03:01:56
Eccentricity: 0.0001340
inclination: 98.1672°
perigee height: 633 km
apogee height: 635 km
right ascension of ascending node: 118.4534°
argument of perigee: 133.7473°
revolutions per day: 14.78323709
mean anomaly at epoch: 268.0371°
orbit number at epoch: 4706

The dashed part of the orbit path shows where the satellite is in the earth's shadow,  

DLR